DW1143 Weather Reports


Display with metric or nautical units.
time (UTC)temp
F
wind
direction
speed
MPH
gust
MPH
rain 1hr
in
rain 24hr
in
rain mn
in
humidity
%
barometer
mb
20260502170304 55 292 1.0 3.0 0.07 0.27 0.27 91 1011.1
20260502164304 55 281 0.0 5.0 0.10 0.24 0.24 90 1011.2
20260502163804 55 305 1.0 7.0 0.11 0.24 0.24 90 1011.2
20260502163304 55 300 0.0 3.0 0.12 0.24 0.24 90 1011.2
20260502162804 55 288 2.0 3.0 0.13 0.23 0.23 89 1011.2
20260502162305 55 277 2.0 5.0 0.14 0.23 0.23 89 1011.4
20260502161804 55 297 0.0 1.0 0.15 0.22 0.22 89 1011.5
20260502161304 55 285 0.0 0.0 0.16 0.21 0.21 88 1011.6
20260502160304 55 278 0.0 0.0 0.17 0.20 0.20 87 1011.9
20260502152305 57 226 0.0 0.0 0.09 0.09 0.09 84 1012.6
20260502151304 58 219 1.0 5.0 0.06 0.06 0.06 84 1012.7
20260502150804 58 235 0.0 3.0 0.03 0.03 0.03 84 1012.7
20260502150304 59 267 1.0 7.0 0.02 0.02 0.02 83 1012.6
20260502130304 63 29 2.0 5.0 0.00 0.00 0.00 71 1013.7
20260502123805 63 59 1.0 3.0 0.00 0.00 0.00 70 1014.0
20260502123304 64 271 3.0 3.0 0.00 0.00 0.00 70 1014.0
20260502122804 64 46 1.0 3.0 0.00 0.00 0.00 70 1014.1
20260502122306 63 53 2.0 3.0 0.00 0.00 0.00 70 1014.3
20260502121803 63 250 1.0 3.0 0.00 0.00 0.00 71 1014.3
20260502121304 63 275 2.0 5.0 0.00 0.00 0.00 70 1014.5
20260502120804 64 139 0.0 2.0 0.00 0.00 0.00 71 1014.6
20260502115804 63 172 1.0 3.0 0.00 0.00 0.00 72 1014.7
20260502115306 63 294 2.0 5.0 0.00 0.00 0.00 71 1014.7
20260502114804 63 289 3.0 6.0 0.00 0.00 0.00 70 1014.8
20260502114304 63 266 2.0 5.0 0.00 0.00 0.00 72 1014.6
20260502113804 62 265 3.0 7.0 0.00 0.00 0.00 71 1014.7
20260502113304 63 281 2.0 7.0 0.00 0.00 0.00 71 1014.9
20260502112804 63 263 3.0 6.0 0.00 0.00 0.00 71 1014.9
20260502112306 63 262 1.0 6.0 0.00 0.00 0.00 72 1014.9
20260502111804 62 274 3.0 6.0 0.00 0.00 0.00 72 1015.1
20260502111304 62 0 0.0 0.0 0.00 0.00 0.00 74 1015.3
20260502110804 62 0 0.0 0.0 0.00 0.00 0.00 74 1015.4
20260502110304 62 0 0.0 0.0 0.00 0.00 0.00 74 1015.4
20260502105804 62 0 0.0 0.0 0.00 0.00 0.00 74 1015.4
20260502104804 62 0 0.0 0.0 0.00 0.00 0.00 74 1015.5
20260502104304 62 13 0.0 1.0 0.00 0.00 0.00 74 1015.8
20260502103804 62 263 1.0 1.0 0.00 0.00 0.00 74 1015.8
20260502103304 62 263 1.0 1.0 0.00 0.00 0.00 74 1015.9
20260502102804 62 265 0.0 0.0 0.00 0.00 0.00 74 1016.1
20260502102306 61 64 0.0 0.0 0.00 0.00 0.00 74 1016.0
20260502101304 61 47 0.0 0.0 0.00 0.00 0.00 74 1016.0
20260502100804 61 28 0.0 0.0 0.00 0.00 0.00 75 1015.9
20260502100304 61 115 0.0 5.0 0.00 0.00 0.00 75 1015.9
20260502091304 60 3 0.0 1.0 0.00 0.00 0.00 78 1016.3
20260502090803 60 308 0.0 0.0 0.00 0.00 0.00 78 1016.4
20260502090304 59 275 0.0 0.0 0.00 0.00 0.00 79 1016.4
20260502071304 54 71 0.0 0.0 0.00 0.00 0.00 91 1017.2
20260502070303 53 71 0.0 0.0 0.00 0.00 0.00 92 1017.2
20260502065804 52 71 0.0 0.0 0.00 0.00 0.00 92 1017.2
20260502065306 52 71 0.0 0.0 0.00 0.00 0.00 92 1017.3
20260502064304 51 71 0.0 0.0 0.00 0.00 0.00 92 1017.3
20260502063804 51 71 0.0 0.0 0.00 0.00 0.00 91 1017.3
20260502063304 51 71 0.0 0.0 0.00 0.00 0.00 91 1017.3
20260502062804 51 69 0.0 0.0 0.00 0.00 0.00 92 1017.3
20260502062306 51 69 0.0 0.0 0.00 0.00 0.00 92 1017.3
20260502061804 51 69 0.0 0.0 0.00 0.00 0.00 92 1017.3
20260502061303 51 65 0.0 0.0 0.00 0.00 0.00 92 1017.3
20260502060804 50 65 0.0 0.0 0.00 0.00 0.00 92 1017.3
20260502060304 50 65 0.0 0.0 0.00 0.00 0.00 91 1017.4
20260502055306 50 56 0.0 0.0 0.00 0.00 0.00 91 1017.4
20260502054804 50 34 0.0 0.0 0.00 0.00 0.00 91 1017.5
20260502054303 50 25 0.0 0.0 0.00 0.00 0.00 91 1017.6
20260502053804 50 25 0.0 0.0 0.00 0.00 0.00 91 1017.5
20260502053304 50 25 0.0 0.0 0.00 0.00 0.00 91 1017.6
20260502052804 49 25 0.0 0.0 0.00 0.00 0.00 91 1017.5
20260502052306 49 25 0.0 0.0 0.00 0.00 0.00 91 1017.5
20260502051804 49 25 0.0 0.0 0.00 0.00 0.00 91 1017.5
20260502051304 49 25 0.0 0.0 0.00 0.00 0.00 91 1017.4
20260502050804 49 25 0.0 0.0 0.00 0.00 0.00 91 1017.3
20260502045804 49 25 0.0 0.0 0.00 0.00 0.00 90 1017.3
20260502045306 49 25 0.0 0.0 0.00 0.00 0.00 90 1017.3
20260502044805 49 25 0.0 0.0 0.00 0.00 0.00 90 1017.3
20260502044304 49 25 0.0 0.0 0.00 0.00 0.00 90 1017.3
20260502043804 49 25 0.0 0.0 0.00 0.00 0.00 89 1017.3
20260502043304 49 25 0.0 0.0 0.00 0.00 0.00 89 1017.3
20260502042804 49 25 0.0 0.0 0.00 0.00 0.00 89 1017.3
20260502042306 49 25 0.0 0.0 0.00 0.00 0.00 88 1017.3
20260502041804 49 25 0.0 0.0 0.00 0.00 0.00 88 1017.4
20260502041304 49 25 0.0 0.0 0.00 0.00 0.00 87 1017.5
20260502040804 49 25 0.0 0.0 0.00 0.00 0.00 87 1017.5
20260502040304 50 25 0.0 0.0 0.00 0.00 0.00 87 1017.5
20260502035804 51 25 0.0 0.0 0.00 0.00 0.00 87 1017.5
20260502035306 52 24 0.0 0.0 0.00 0.00 0.00 87 1017.5
20260502033804 52 275 0.0 0.0 0.00 0.00 0.00 89 1017.7
20260502033303 52 272 0.0 0.0 0.00 0.00 0.00 89 1017.7
20260502032804 52 267 0.0 0.0 0.00 0.00 0.00 89 1017.7
20260502031804 52 267 0.0 3.0 0.00 0.00 0.00 90 1017.8
20260502031304 52 276 0.0 3.0 0.00 0.00 0.00 90 1017.8
20260502030804 52 269 1.0 3.0 0.00 0.00 0.00 90 1017.8
20260502030304 52 263 1.0 3.0 0.00 0.00 0.00 91 1017.9
20260502025804 52 287 0.0 0.0 0.00 0.00 0.00 90 1017.9
20260502025306 51 241 0.0 0.0 0.00 0.00 0.00 90 1017.9
20260502024804 52 226 0.0 0.0 0.00 0.00 0.00 90 1018.0
20260502024304 51 226 0.0 0.0 0.00 0.00 0.00 90 1018.1
20260502023804 51 226 0.0 0.0 0.00 0.00 0.00 90 1018.1
20260502023304 51 227 0.0 0.0 0.00 0.00 0.00 91 1018.1
20260502022804 51 227 0.0 0.0 0.00 0.00 0.00 91 1018.1
20260502022306 51 227 0.0 0.0 0.00 0.00 0.00 90 1018.1
20260502021804 51 227 0.0 0.0 0.00 0.00 0.00 90 1018.2
20260502021304 50 227 0.0 0.0 0.00 0.00 0.00 90 1018.3
20260502020804 50 227 0.0 0.0 0.00 0.00 0.00 90 1018.3
20260502015305 50 227 0.0 0.0 0.00 0.00 0.00 89 1018.5
20260502014804 50 227 0.0 0.0 0.00 0.00 0.00 89 1018.4
20260502013803 50 227 0.0 0.0 0.00 0.00 0.00 88 1018.5
20260502013304 50 227 0.0 0.0 0.00 0.00 0.00 88 1018.5
20260502012803 50 227 0.0 0.0 0.00 0.00 0.00 88 1018.5
20260502012306 51 227 0.0 0.0 0.00 0.00 0.00 88 1018.5
20260502011805 51 227 0.0 0.0 0.00 0.00 0.00 88 1018.5
20260502010804 51 227 0.0 0.0 0.00 0.00 0.00 88 1018.6
20260502010304 51 227 0.0 0.0 0.00 0.00 0.00 87 1018.6
20260502005804 52 227 0.0 0.0 0.00 0.00 0.00 87 1018.7
20260502005306 52 227 0.0 0.0 0.00 0.00 0.00 87 1018.7
20260502004804 52 227 0.0 0.0 0.00 0.00 0.00 87 1018.7
20260502004304 52 227 0.0 0.0 0.00 0.00 0.00 87 1018.8
20260502003804 52 227 0.0 0.0 0.00 0.00 0.00 87 1018.8
20260502003304 53 227 0.0 0.0 0.00 0.00 0.00 87 1018.8
20260502002804 53 227 0.0 0.0 0.00 0.00 0.00 87 1018.8
20260502002305 53 227 0.0 0.0 0.00 0.00 0.00 87 1018.9
20260502001804 53 227 0.0 0.0 0.00 0.00 0.00 87 1018.9
20260502001304 54 227 0.0 0.0 0.00 0.00 0.00 87 1019.0
20260502000804 54 225 0.0 0.0 0.00 0.00 0.00 87 1019.0
20260502000304 54 265 0.0 0.0 0.00 0.00 0.00 87 1019.1
20260501235804 54 277 0.0 0.0 0.00 0.00 0.00 87 1019.0
20260501235305 54 277 0.0 0.0 0.00 0.00 0.00 87 1019.1
20260501234304 54 272 0.0 0.0 0.00 0.00 0.00 87 1019.1
20260501233804 54 272 0.0 0.0 0.00 0.00 0.00 87 1019.2
20260501233304 54 272 0.0 0.0 0.00 0.00 0.00 87 1019.2
20260501232804 54 282 0.0 0.0 0.00 0.00 0.00 87 1019.2
20260501232306 54 250 0.0 0.0 0.00 0.00 0.00 87 1019.3
20260501231804 54 269 0.0 3.0 0.00 0.00 0.00 87 1019.3
20260501231304 54 255 1.0 6.0 0.00 0.00 0.00 87 1019.5
20260501230819 54 287 2.0 6.0 0.00 0.00 0.00 87 1019.5
20260501230304 54 273 1.0 3.0 0.00 0.00 0.00 87 1019.5
20260501225804 54 241 1.0 6.0 0.00 0.00 0.00 87 1019.4
20260501225306 54 252 2.0 6.0 0.00 0.00 0.00 87 1019.5
20260501224804 54 241 2.0 5.0 0.00 0.00 0.00 87 1019.5
20260501223804 54 242 3.0 7.0 0.00 0.00 0.00 88 1019.6
20260501222804 54 241 2.0 7.0 0.00 0.00 0.00 89 1019.5
20260501222305 54 232 1.0 5.0 0.00 0.00 0.00 89 1019.5
20260501221804 53 155 0.0 0.0 0.00 0.00 0.00 88 1019.5
20260501221304 53 154 0.0 0.0 0.00 0.00 0.00 88 1019.5
20260501220804 53 154 0.0 0.0 0.00 0.00 0.00 88 1019.5
20260501220303 53 154 0.0 0.0 0.00 0.00 0.00 87 1019.5
20260501214804 53 154 0.0 0.0 0.00 0.00 0.00 87 1019.4
20260501214304 53 154 0.0 0.0 0.00 0.00 0.00 87 1019.4
20260501213805 53 154 0.0 0.0 0.00 0.00 0.00 86 1019.4
20260501213304 53 154 0.0 0.0 0.00 0.00 0.00 86 1019.3
20260501212804 53 154 0.0 0.0 0.00 0.00 0.00 86 1019.3
20260501211803 53 154 0.0 0.0 0.00 0.00 0.00 86 1019.4
20260501211304 53 154 0.0 0.0 0.00 0.00 0.00 85 1019.4
20260501210804 54 267 0.0 0.0 0.00 0.00 0.00 85 1019.4
20260501210304 54 267 0.0 0.0 0.00 0.00 0.00 85 1019.4
20260501205804 54 267 0.0 0.0 0.00 0.00 0.00 85 1019.4
20260501205306 54 267 0.0 0.0 0.00 0.00 0.00 85 1019.3
20260501204305 54 267 0.0 0.0 0.00 0.00 0.00 85 1019.3
20260501203305 54 268 0.0 0.0 0.00 0.00 0.00 84 1019.3
20260501202805 54 167 0.0 0.0 0.00 0.00 0.00 84 1019.2
20260501202306 55 167 0.0 0.0 0.00 0.00 0.00 84 1019.3
20260501201805 55 167 0.0 0.0 0.00 0.00 0.00 83 1019.2
20260501200805 55 167 0.0 0.0 0.00 0.00 0.00 83 1019.1
20260501200305 55 167 0.0 0.0 0.00 0.00 0.00 83 1019.0
20260501195805 55 241 0.0 1.0 0.00 0.00 0.00 82 1019.0
20260501195306 56 218 0.0 2.0 0.00 0.00 0.00 81 1019.1
20260501194805 56 217 0.0 0.0 0.00 0.00 0.00 81 1019.1
20260501194305 56 217 0.0 0.0 0.00 0.00 0.00 80 1019.0
20260501193804 57 215 0.0 1.0 0.00 0.00 0.00 80 1019.0
20260501193304 57 265 0.0 0.0 0.00 0.00 0.00 80 1019.0
20260501192805 57 265 0.0 0.0 0.00 0.00 0.00 79 1018.9
20260501192306 57 265 0.0 0.0 0.00 0.00 0.00 79 1019.0
20260501191805 57 266 0.0 3.0 0.00 0.00 0.00 79 1019.0
20260501190805 58 259 1.0 2.0 0.00 0.00 0.00 77 1018.8
20260501190304 58 269 0.0 0.0 0.00 0.00 0.00 77 1018.8
20260501183805 59 245 1.0 5.0 0.00 0.00 0.00 76 1018.7
20260501183305 59 254 0.0 3.0 0.00 0.00 0.00 76 1018.7
20260501182804 59 254 2.0 7.0 0.00 0.00 0.00 76 1018.8
20260501182306 59 263 2.0 7.0 0.00 0.00 0.00 76 1018.8
20260501181804 59 269 1.0 5.0 0.00 0.00 0.00 77 1018.8
20260501181305 59 277 1.0 5.0 0.00 0.00 0.00 77 1018.7
20260501180805 60 254 3.0 5.0 0.00 0.00 0.00 77 1018.7
20260501180305 60 256 3.0 7.0 0.00 0.00 0.00 77 1018.7
20260501175805 60 269 2.0 5.0 0.00 0.00 0.00 77 1018.7
20260501175306 60 270 2.0 5.0 0.00 0.00 0.00 77 1018.7
20260501174805 60 264 1.0 3.0 0.00 0.00 0.00 77 1018.6
20260501174305 60 247 0.0 3.0 0.00 0.00 0.00 76 1018.7
20260501173805 60 273 1.0 3.0 0.00 0.00 0.00 76 1018.8
20260501173305 60 244 3.0 5.0 0.00 0.00 0.00 76 1018.7
20260501172805 60 235 1.0 6.0 0.00 0.00 0.00 76 1018.7